Regional Weather Roundup
Issued by NWS

Home | Current Version | Previous Version | Graphics & Text | Print | Product List | Glossary On
Versions: 1 2 3 4 5 6 7 8 9 10 11 12 13 14 15 16 17 18 19 20 21 22 23 24 25 26 27 28 29 30 31 32 33 34 35 36 37 38 39 40 41 42 43 44 45 46 47 48 49 50
000
ASUS43 KLSX 111607
RWRMO

WEATHER SUMMARY FOR MISSOURI
NATIONAL WEATHER SERVICE SPRINGFIELD MO
1100 AM CDT FRI JUL 11 2014

NOTE: "FAIR" INDICATES FEW OR NO CLOUDS BELOW 12,000 FEET WITH NO
       SIGNIFICANT WEATHER AND/OR OBSTRUCTIONS TO VISIBILITY.
       CURRENT SKY AND/OR WEATHER CONDITIONS ARE NOT AVAILABLE FOR
       CHILLICOTHE AND FARMINGTON.

MOZ001>031-035>038-043-044-053-054-111700-
...NORTHERN AND WESTERN MISSOURI...

CITY           SKY/WX    TMP DP  RH WIND       PRES   REMARKS
KANSAS CTY INT PTSUNNY   79  69  71 S10       30.06R
KANSAS C DTWN  PTSUNNY   81  69  67 S7        30.06R
LEE`S SUMMIT   MOSUNNY   78  69  73 S12       30.07S
ST JOSEPH      PTSUNNY   79  71  76 S12       30.05R
CHILLICOTHE      N/A     79  68  69 S10       30.08S
KIRKSVILLE     PTSUNNY   78  68  71 SE12      30.10F

$$
MOZ066>068-077>081-088>096-101>105-111700-
...SOUTHWEST MISSOURI...

CITY           SKY/WX    TMP DP  RH WIND       PRES   REMARKS
SPRINGFIELD    SUNNY     82  70  66 S12       30.14F
JOPLIN         SUNNY     85  69  58 SW12G21   30.12R

$$
MOZ032>034-039>042-045>050-055>058-069>072-111700-
...CENTRAL MISSOURI...

CITY           SKY/WX    TMP DP  RH WIND       PRES   REMARKS
COLUMBIA       SUNNY     81  69  67 SE12      30.13F
JEFFERSON CITY SUNNY     81  68  64 SE9       30.12F
ROLLA          SUNNY     80  66  62 S12       30.15F
SEDALIA        MOSUNNY   84  72  67 S13       30.11S
WHITEMAN AFB   MOSUNNY   81  66  59 S15       30.08F
OSAGE BEACH    MOSUNNY   82  68  61 S12       30.13F

$$
MOZ051-052-059>065-111700-
...EAST CENTRAL MISSOURI...

CITY           SKY/WX    TMP DP  RH WIND       PRES   REMARKS
ST LOUIS INTL  MOSUNNY   83  63  50 SE9       30.19R
SPIRIT OF STL  MOSUNNY   82  65  56 SE8       30.15F
ST CHARLES     SUNNY     80  64  58 S7        30.16F

$$
MOZ072>076-082>087-097>100-106>115-111700-
...SOUTH CENTRAL AND SOUTHEAST MISSOURI...

CITY           SKY/WX    TMP DP  RH WIND       PRES   REMARKS
CAPE GIRARDEAU SUNNY     83  66  56 VRB3      30.18R
FARMINGTON     SUNNY     81  66  61 S7        30.22S
POPLAR BLUFF   SUNNY     80  68  66 SE3       30.17R
WEST PLAINS    PTSUNNY   78  67  68 S5        30.21R

$$


USA.gov is the U.S. government's official web portal to all federal, state and local government web resources and services.